Regional Weather Roundup
Issued by NWS Cleveland, OH

Home | Current Version | Previous Version | Graphics & Text | Print | Product List | Glossary On
Versions: 1 2 3 4 5 6 7 8 9 10 11 12 13 14 15 16 17 18 19 20 21 22 23 24 25 26 27 28 29 30 31 32 33 34 35 36 37 38 39 40 41 42 43 44 45 46 47 48 49 50
000
ASUS41 KCLE 290500
RWRCLE
OHIO REGIONAL WEATHER ROUNDUP
NATIONAL WEATHER SERVICE WILMINGTON, OH
100 AM EDT SAT AUG 29 2015

NOTE: "FAIR" INDICATES FEW OR NO CLOUDS BELOW 12,000 FEET WITH NO
SIGNIFICANT WEATHER AND/OR OBSTRUCTIONS TO VISIBILITY.

OHZ001>008-015>018-024>027-034-035-043-044-290600-
   NORTHWEST OHIO

CITY           SKY/WX    TMP DP  RH WIND       PRES   REMARKS
DEFIANCE       CLOUDY    66  59  78 CALM      30.15R
FINDLAY        PTCLDY    64  59  83 SE6       30.15R
TOLEDO EXPRESS CLOUDY    63  59  87 CALM      30.15R
TOLEDO EXEC    MOCLDY    63  57  81 SE5       30.16R
LIMA           MOCLDY    64  57  78 SE6       30.15S
$$

OHZ009>014-019>023-028>033-038-089-290600-
   NORTHEAST OHIO

CITY           SKY/WX    TMP DP  RH WIND       PRES   REMARKS
CLE-HOPKINS    MOCLDY    62  56  80 SE5       30.19R
CLE-LAKEFRONT  PTCLDY    66  56  70 SE6       30.16R
CUY CO. ARPT   NOT AVBL
LORAIN-ELYRIA  CLEAR     57  55  93 CALM      30.18R
ASHTABULA      CLEAR     55  55 100 CALM      30.19S
AKRON-CANTON   PTCLDY    61  56  83 NE6       30.18S
WOOSTER        NOT AVBL
MANSFIELD      CLEAR     60  57  89 SE6       30.18S
YOUNGSTOWN     PTCLDY    57  56  96 E6        30.19R
$$

OHZ042-051>053-060>062-070>072-077>081-290600-
  SOUTHWEST OHIO

CITY           SKY/WX    TMP DP  RH WIND       PRES   REMARKS
CINC-COVINGTON CLEAR     66  58  75 SE6       30.14
CINC-LUNKEN    CLEAR     61  61 100 CALM      30.14F FOG
HAMILTON       CLEAR     60  59  96 CALM      30.15S
DAYTON         NOT AVBL
WRIGHT-PAT AFB PTCLDY    63  58  82 VRB1      30.15S
DAYTON GENERAL CLEAR     66  56  70 E7        30.14S
WILMINGTON     CLEAR     61  56  83 SE5       30.16S
$$

OHZ036-037-039>041-045>050-054>059-063>069-073>076-082>088-290600-
  CENTRAL AND SOUTHEAST OHIO

CITY           SKY/WX    TMP DP  RH WIND       PRES   REMARKS
COLUMBUS       PTCLDY    63  57  81 CALM      30.15S
OSU AIRPORT    CLEAR     62  57  83 CALM      30.16S
BOLTON FIELD   NOT AVBL
RICKENBACK AFB NOT AVBL
NEWARK         PTCLDY    56  54  93 CALM      30.16F FOG
MARION         CLEAR     58  54  86 E3        30.17S
LANCASTER      CLEAR     55  53  93 CALM      30.17S FOG
ZANESVILLE     CLEAR     58  54  86 CALM      30.17S
NEW PHILLY     CLEAR     54  53  97 E3        30.18S
$$


USA.gov is the U.S. government's official web portal to all federal, state and local government web resources and services.